• In Italy
  • List of Countries
  • For 7 days
  • Water Temperature
  • Satellite Maps
  • Weather Map
  • Weather Widgets
  • user-avatar
    Login

    Hourly Weather Armawir

    Today, 19 February, Monday

    Time Temperature Precipitation Wind Pressure Humidity
    00:00 +4°C° 0.5 mm 3 mps 682 mmHg 80%
    01:00 +4°C° 0.4 mm 3 mps 682 mmHg 81%
    02:00 +4°C° 0.4 mm 3 mps 682 mmHg 81%
    03:00 +4°C° 0 mm 3 mps 682 mmHg 79%
    04:00 +3°C° 0.3 mm 3 mps 683 mmHg 79%
    05:00 +3°C° 0.3 mm 3 mps 683 mmHg 79%
    06:00 +4°C° 0.3 mm 2 mps 683 mmHg 79%
    07:00 +5°C° 0.2 mm 2 mps 684 mmHg 77%
    08:00 +5°C° 0.2 mm 2 mps 684 mmHg 74%
    09:00 +5°C° 0.2 mm 2 mps 684 mmHg 72%
    10:00 +6°C° 0.1 mm 2 mps 684 mmHg 70%
    11:00 +7°C° 0.1 mm 2 mps 684 mmHg 67%
    12:00 +7°C° 0.1 mm 2 mps 684 mmHg 65%
    13:00 +9°C° 0.1 mm 1 mps 684 mmHg 64%
    14:00 +9°C° 0.1 mm 1 mps 684 mmHg 63%
    15:00 +9°C° 0.1 mm 1 mps 684 mmHg 61%
    16:00 +9°C° 0 mm 1 mps 684 mmHg 63%
    17:00 +8°C° 0 mm 1 mps 684 mmHg 66%
    18:00 +7°C° 0 mm 1 mps 684 mmHg 68%
    19:00 +6°C° 0 mm 1 mps 685 mmHg 68%
    20:00 +6°C° 0 mm 1 mps 685 mmHg 69%
    21:00 +4°C° 0 mm 2 mps 686 mmHg 69%
    22:00 +5°C° 0 mm 1 mps 686 mmHg 69%
    23:00 +4°C° 0 mm 1 mps 686 mmHg 68%

    Tomorrow, 20 February, Tuesday

    Time Temperature Precipitation Wind Pressure Humidity
    00:00 +4°C° 0 mm 1 mps 686 mmHg 68%
    01:00 +4°C° 0 mm 1 mps 686 mmHg 67%
    02:00 +4°C° 0 mm 1 mps 686 mmHg 66%
    03:00 +4°C° 0 mm 1 mps 686 mmHg 66%
    04:00 +4°C° 0 mm 1 mps 686 mmHg 65%
    05:00 +3°C° 0 mm 1 mps 686 mmHg 65%
    06:00 +3°C° 0 mm 1 mps 686 mmHg 65%
    07:00 +3°C° 0 mm 2 mps 686 mmHg 64%
    08:00 +4°C° 0 mm 2 mps 687 mmHg 62%
    09:00 +6°C° 0 mm 2 mps 687 mmHg 61%
    10:00 +7°C° 0 mm 2 mps 686 mmHg 59%
    11:00 +8°C° 0 mm 2 mps 686 mmHg 56%
    12:00 +9°C° 0 mm 2 mps 686 mmHg 54%
    13:00 +9°C° 0 mm 2 mps 685 mmHg 53%
    14:00 +10°C° 0 mm 2 mps 685 mmHg 52%
    15:00 +10°C° 0 mm 2 mps 685 mmHg 51%
    16:00 +9°C° 0 mm 2 mps 685 mmHg 54%
    17:00 +8°C° 0 mm 2 mps 685 mmHg 56%
    18:00 +7°C° 0 mm 2 mps 685 mmHg 58%
    19:00 +6°C° 0 mm 2 mps 685 mmHg 59%
    20:00 +6°C° 0 mm 2 mps 685 mmHg 60%
    21:00 +6°C° 0 mm 1 mps 686 mmHg 61%
    22:00 +6°C° 0 mm 1 mps 686 mmHg 62%
    23:00 +6°C° 0 mm 1 mps 686 mmHg 63%

    Day after tomorrow, 21 February, Wednesday

    Time Temperature Precipitation Wind Pressure Humidity
    00:00 +5°C° 0 mm 1 mps 686 mmHg 64%
    01:00 +5°C° 0.1 mm 1 mps 686 mmHg 65%
    02:00 +5°C° 0.1 mm 1 mps 686 mmHg 66%
    03:00 +5°C° 0.1 mm 1 mps 686 mmHg 67%
    04:00 +5°C° 0.1 mm 1 mps 685 mmHg 68%
    05:00 +5°C° 0.1 mm 1 mps 685 mmHg 69%
    06:00 +5°C° 0.1 mm 1 mps 685 mmHg 69%
    07:00 +6°C° 0.1 mm 1 mps 685 mmHg 67%
    08:00 +6°C° 0.1 mm 1 mps 686 mmHg 65%
    09:00 +7°C° 0.1 mm 1 mps 686 mmHg 63%
    10:00 +7°C° 0.1 mm 2 mps 686 mmHg 62%
    11:00 +8°C° 0.1 mm 2 mps 685 mmHg 60%
    12:00 +9°C° 0.1 mm 2 mps 685 mmHg 58%
    13:00 +9°C° 0.1 mm 2 mps 685 mmHg 58%
    14:00 +9°C° 0.1 mm 2 mps 684 mmHg 57%
    15:00 +10°C° 0.1 mm 2 mps 684 mmHg 56%
    16:00 +9°C° 0.1 mm 2 mps 684 mmHg 58%
    17:00 +8°C° 0.1 mm 2 mps 684 mmHg 60%
    18:00 +7°C° 0.1 mm 2 mps 684 mmHg 62%
    19:00 +7°C° 0.1 mm 2 mps 685 mmHg 63%
    20:00 +7°C° 0.1 mm 1 mps 685 mmHg 63%
    21:00 +7°C° 0.1 mm 1 mps 685 mmHg 64%
    22:00 +6°C° 0 mm 1 mps 685 mmHg 65%
    23:00 +6°C° 0 mm 1 mps 685 mmHg 65%

    22 February, Thursday

    Time Temperature Precipitation Wind Pressure Humidity
    00:00 +6°C° 0 mm 1 mps 686 mmHg 65%
    01:00 +6°C° 0 mm 1 mps 685 mmHg 66%
    02:00 +6°C° 0 mm 1 mps 685 mmHg 67%
    03:00 +5°C° 0 mm 1 mps 685 mmHg 68%
    04:00 +5°C° 0.1 mm 1 mps 685 mmHg 69%
    05:00 +5°C° 0.1 mm 1 mps 685 mmHg 70%
    06:00 +5°C° 0.1 mm 1 mps 685 mmHg 71%
    07:00 +6°C° 0.1 mm 1 mps 685 mmHg 69%
    08:00 +6°C° 0.1 mm 1 mps 685 mmHg 67%
    09:00 +7°C° 0.1 mm 1 mps 686 mmHg 66%
    10:00 +8°C° 0.1 mm 1 mps 685 mmHg 64%
    11:00 +9°C° 0.1 mm 1 mps 685 mmHg 63%
    12:00 +10°C° 0.1 mm 1 mps 684 mmHg 61%
    13:00 +10°C° 0 mm 1 mps 684 mmHg 60%
    14:00 +11°C° 0 mm 1 mps 683 mmHg 59%
    15:00 +11°C° 0 mm 1 mps 683 mmHg 58%
    16:00 +10°C° 0 mm 1 mps 683 mmHg 60%
    17:00 +9°C° 0 mm 1 mps 683 mmHg 62%
    18:00 +8°C° 0 mm 1 mps 683 mmHg 63%
    19:00 +8°C° 0 mm 1 mps 683 mmHg 64%
    20:00 +8°C° 0 mm 1 mps 684 mmHg 65%
    21:00 +7°C° 0 mm 1 mps 684 mmHg 66%
    22:00 +7°C° 0 mm 1 mps 684 mmHg 66%
    23:00 +7°C° 0 mm 1 mps 684 mmHg 67%

    23 February, Friday

    Time Temperature Precipitation Wind Pressure Humidity
    00:00 +6°C° 0 mm 1 mps 684 mmHg 67%
    01:00 +6°C° 0 mm 1 mps 684 mmHg 68%
    02:00 +6°C° 0 mm 1 mps 684 mmHg 68%
    03:00 +5°C° 0 mm 1 mps 684 mmHg 68%
    04:00 +5°C° 0 mm 1 mps 684 mmHg 69%
    05:00 +5°C° 0 mm 1 mps 684 mmHg 69%
    06:00 +5°C° 0 mm 1 mps 684 mmHg 69%
    07:00 +6°C° 0 mm 1 mps 684 mmHg 67%
    08:00 +7°C° 0 mm 1 mps 684 mmHg 65%
    09:00 +8°C° 0 mm 1 mps 684 mmHg 62%
    10:00 +8°C° 0 mm 1 mps 684 mmHg 60%
    11:00 +9°C° 0 mm 1 mps 683 mmHg 58%
    12:00 +10°C° 0 mm 1 mps 683 mmHg 56%
    13:00 +10°C° 0 mm 1 mps 682 mmHg 56%
    14:00 +11°C° 0 mm 1 mps 682 mmHg 55%
    15:00 +11°C° 0 mm 1 mps 682 mmHg 54%
    16:00 +10°C° 0 mm 1 mps 682 mmHg 57%
    17:00 +9°C° 0 mm 1 mps 682 mmHg 59%
    18:00 +9°C° 0 mm 1 mps 682 mmHg 62%
    19:00 +8°C° 0 mm 1 mps 683 mmHg 64%
    20:00 +8°C° 0 mm 1 mps 683 mmHg 67%
    21:00 +7°C° 0 mm 1 mps 683 mmHg 69%
    22:00 +7°C° 0 mm 1 mps 683 mmHg 70%
    23:00 +6°C° 0 mm 1 mps 683 mmHg 71%

    24 February, Saturday

    Time Temperature Precipitation Wind Pressure Humidity
    00:00 +6°C° 0 mm 1 mps 684 mmHg 72%
    01:00 +6°C° 0 mm 1 mps 683 mmHg 72%
    02:00 +5°C° 0 mm 1 mps 683 mmHg 72%
    03:00 +5°C° 0 mm 1 mps 683 mmHg 72%
    04:00 +5°C° 0 mm 1 mps 683 mmHg 72%
    05:00 +4°C° 0 mm 1 mps 684 mmHg 72%
    06:00 +4°C° 0 mm 1 mps 684 mmHg 72%
    07:00 +5°C° 0 mm 1 mps 684 mmHg 69%
    08:00 +6°C° 0 mm 1 mps 684 mmHg 66%
    09:00 +7°C° 0 mm 1 mps 684 mmHg 62%
    10:00 +8°C° 0 mm 1 mps 684 mmHg 60%
    11:00 +9°C° 0 mm 1 mps 683 mmHg 57%
    12:00 +10°C° 0 mm 1 mps 683 mmHg 55%
    13:00 +10°C° 0 mm 1 mps 683 mmHg 54%
    14:00 +11°C° 0 mm 1 mps 682 mmHg 52%
    15:00 +11°C° 0 mm 1 mps 682 mmHg 50%
    16:00 +10°C° 0 mm 1 mps 682 mmHg 53%
    17:00 +8°C° 0 mm 0 mps 682 mmHg 55%
    18:00 +7°C° 0 mm 0 mps 682 mmHg 58%
    19:00 +6°C° 0 mm 0 mps 683 mmHg 59%
    20:00 +7°C° 0 mm 1 mps 683 mmHg 59%
    21:00 +6°C° 0 mm 1 mps 684 mmHg 60%
    22:00 +6°C° 0 mm 1 mps 684 mmHg 60%
    23:00 +6°C° 0 mm 1 mps 684 mmHg 61%
    Show more